Retour au catalogue

STARLINK-36522

ActifCommunicationsVLEO
NORAD 67461·PAYLOAD·🇺🇸 United States

Lancé Jan 14, 2026 depuis Cape Canaveral Space Force Station

Loading…

Prochains Passages (prochaines 24 heures)

TLE

FraisSource: CelesTrak SupGP

Époque: Sep 14, 2026, 22:43 UTC

1 67461C 26008S   26257.94701389  .00003442  00000+0  12464-3 0  2572
2 67461  43.0013 216.4082 0001087 242.3780 223.6196 15.27584720    13

Suivez STARLINK-36522 en temps réel avec AllMySat

Download on the App Store